Torna al catalogo

STARLINK-37631

AttivoComunicazioniVLEO
NORAD 69369·PAYLOAD·🇺🇸 United States

Lanciato Jun 4, 2026 da Cape Canaveral Space Force Station

Loading…

Prossimi Passaggi (prossime 24 ore)

TLE

AggiornatoSource: CelesTrak SupGP

Epoca: Sep 15, 2026, 04:32 UTC

1 69369C 26123S   26258.18937500  .00109870  00000+0  32427-2 0  2585
2 69369  53.1577 166.5257 0001221  78.2476 326.6620 15.34367499    12

Traccia STARLINK-37631 in tempo reale con AllMySat

Download on the App Store